Weather History for Sioux Falls, SD

Change the Weather History Date:

Thursday, June 27, 2013

  Actual Average Record
Temperature  
Mean Temperature 76 °F 71 °F  
Max Temperature 85 °F 83 °F 101 °F (1934)
Min Temperature 67 °F 60 °F 38 °F (1968)
Degree Days  
Heating Degree Days 0 1  
Month to date heating degree days 69 52  
Since 1 June heating degree days 69 52  
Since 1 July heating degree days 7884 7707  
Cooling Degree Days 11 7  
Month to date cooling degree days 126 114  
Year to date cooling degree days 168 150  
Since 1 June cooling degree days 126 114  
Growing Degree Days 26 (Base 50)    
Moisture  
Dew Point 62 °F    
Average Humidity 61    
Maximum Humidity 84    
Minimum Humidity 37    
Precipitation  
Precipitation T in 0.13 in 2.87 in (1953)
Month to date precipitation 4.28 3.56  
Year to date precipitation 16.59 12.89  
Snow  
Snow 0.00 in 0.00 in 0.00 in ()
Month to date snowfall 0.0 0.0  
Since 1 June snowfall 0.0 0.0  
Since 1 July snowfall 43.3 44.5  
Snow Depth 0.00 in    
Sea Level Pressure  
Sea Level Pressure 29.92 in    
Wind  
Wind Speed 7 mph (WNW)    
Max Wind Speed 15 mph    
Max Gust Speed 24 mph    
Visibility 10 miles    
Events Thunderstorm    
T = Trace of Precipitation, MM = Missing Value Source: NWS Daily Summary

Daily Weather History Graph

Daily Weather History Graph

Search for Another Location

Airport:

Trip Planner

Search our weather history database for the weather conditions in past years. The results will help you decide how hot, cold, wet, or windy it might be!

Date:

Astronomy

Jun. 27, 2013 Rise Set
Actual Time 5:47 AM CDT 9:12 PM CDT
Civil Twilight 5:11 AM CDT 9:48 PM CDT
Nautical Twilight 4:25 AM CDT 10:34 PM CDT
Astronomical Twilight 3:26 AM CDT 11:33 PM CDT
Moon 11:59 PM CDT (6/27) 10:59 AM CDT (6/27)
Length of Visible Light 16h 36m
Length of Day
15h 24m
Waning Gibbous, 76% of the Moon is Illuminated
Jun 27
Waning Gibbous
Jun 29
Last Quarter
Jul 8
New
Jul 15
First Quarter
Jul 22
Full

Hourly Weather History & Observations

Time (CDT) Temp. Heat Index Dew Point Humidity Pressure Visibility Wind Dir Wind Speed Gust Speed Precip Events Conditions
12:56 AM 69.1 °F - 64.0 °F 84% 29.85 in 10.0 mi SW 3.5 mph - 0.00 in   Clear
1:56 AM 72.0 °F - 62.1 °F 71% 29.86 in 10.0 mi Calm Calm - 0.00 in   Clear
2:56 AM 71.1 °F - 63.0 °F 75% 29.87 in 10.0 mi West 5.8 mph - N/A   Clear
3:06 AM 71.6 °F - 62.6 °F 73% 29.90 in 10.0 mi West 5.8 mph - N/A Thunderstorm Clear
3:19 AM 71.6 °F - 62.6 °F 73% 29.90 in 10.0 mi West 3.5 mph - N/A Thunderstorm Clear
3:44 AM 73.4 °F - 64.4 °F 73% 29.92 in 10.0 mi West 6.9 mph - N/A   Clear
3:56 AM 72.0 °F - 64.0 °F 76% 29.88 in 10.0 mi WNW 6.9 mph - N/A   Clear
4:56 AM 72.0 °F - 64.9 °F 78% 29.89 in 10.0 mi SW 3.5 mph - N/A   Mostly Cloudy
5:56 AM 71.1 °F - 64.9 °F 81% 29.89 in 10.0 mi WNW 4.6 mph - 0.00 in   Mostly Cloudy
6:56 AM 71.1 °F - 64.9 °F 81% 29.90 in 10.0 mi Calm Calm - 0.00 in   Mostly Cloudy
7:56 AM 72.0 °F - 64.0 °F 76% 29.92 in 10.0 mi WNW 5.8 mph - N/A   Mostly Cloudy
8:56 AM 73.9 °F - 66.9 °F 79% 29.91 in 10.0 mi Calm Calm - N/A   Mostly Cloudy
9:56 AM 75.0 °F - 64.0 °F 69% 29.95 in 10.0 mi WSW 6.9 mph - N/A   Mostly Cloudy
10:56 AM 73.9 °F - 66.0 °F 76% 29.96 in 10.0 mi WSW 6.9 mph - N/A   Mostly Cloudy
11:56 AM 77.0 °F - 64.0 °F 64% 29.97 in 10.0 mi West 5.8 mph - N/A   Mostly Cloudy
12:56 PM 82.0 °F 83.0 °F 62.1 °F 51% 29.97 in 10.0 mi WNW 13.8 mph - N/A   Scattered Clouds
1:56 PM 82.0 °F 82.1 °F 59.0 °F 45% 29.96 in 10.0 mi WNW 15.0 mph 23.0 mph N/A   Scattered Clouds
2:56 PM 82.9 °F 83.2 °F 60.1 °F 46% 29.95 in 10.0 mi WNW 13.8 mph 20.7 mph N/A   Partly Cloudy
3:56 PM 84.0 °F 83.8 °F 59.0 °F 43% 29.94 in 10.0 mi WNW 12.7 mph - N/A   Partly Cloudy
4:56 PM 84.0 °F 83.3 °F 57.0 °F 40% 29.94 in 10.0 mi NW 12.7 mph 24.2 mph N/A   Partly Cloudy
5:56 PM 84.0 °F 82.9 °F 55.0 °F 37% 29.93 in 10.0 mi NW 15.0 mph 24.2 mph N/A   Partly Cloudy
6:56 PM 82.9 °F 82.0 °F 55.0 °F 38% 29.92 in 10.0 mi WNW 11.5 mph 23.0 mph N/A   Partly Cloudy
7:56 PM 81.0 °F 81.1 °F 57.9 °F 45% 29.91 in 10.0 mi WNW 8.1 mph - N/A   Partly Cloudy
8:56 PM 77.0 °F - 59.0 °F 54% 29.90 in 10.0 mi West 4.6 mph - N/A   Partly Cloudy
9:56 PM 75.0 °F - 61.0 °F 62% 29.90 in 10.0 mi West 4.6 mph - N/A   Mostly Cloudy
10:56 PM 72.0 °F - 62.1 °F 71% 29.91 in 10.0 mi WNW 5.8 mph - N/A   Partly Cloudy
11:56 PM 70.0 °F - 62.1 °F 76% 29.94 in 10.0 mi NW 8.1 mph - N/A   Clear